Weather History for San Diego Brown, CA

Change the Weather History Date:

Tuesday, October 29, 2013

  Actual Average Record
Temperature  
Mean Temperature 58 °F -  
Max Temperature 64 °F 69 °F 86 °F (2008)
Min Temperature 53 °F 50 °F 46 °F (1954)
Degree Days  
Heating Degree Days 6    
Growing Degree Days 8 (Base 50)    
Moisture  
Dew Point 52 °F    
Average Humidity 84    
Maximum Humidity 100    
Minimum Humidity 52    
Precipitation  
Precipitation 0.27 in - - ()
Sea Level Pressure  
Sea Level Pressure 29.96 in    
Wind  
Wind Speed 3 mph (WNW)    
Max Wind Speed 10 mph    
Max Gust Speed -    
Visibility 8 miles    
Events Rain    
Averages and records for this station are not official NWS values.
T = Trace of Precipitation, MM = Missing Value Source: NWS Daily Summary

Daily Weather History Graph

Daily Weather History Graph

Search for Another Location

Airport:

Trip Planner

Search our weather history database for the weather conditions in past years. The results will help you decide how hot, cold, wet, or windy it might be!

Date:

Astronomy

Oct. 29, 2013 Rise Set
Actual Time 7:03 AM PDT 5:59 PM PDT
Civil Twilight 6:37 AM PDT 6:24 PM PDT
Nautical Twilight 6:08 AM PDT 6:53 PM PDT
Astronomical Twilight 5:40 AM PDT 7:22 PM PDT
Moon 2:13 AM PDT (10/29) 3:01 PM PDT (10/29)
Length of Visible Light 11h 47m
Length of Day
10h 56m
Waning Crescent, 24% of the Moon is Illuminated
Oct 29
Waning Crescent
Nov 3
New
Nov 9
First Quarter
Nov 17
Full
Nov 25
Last Quarter

Hourly Weather History & Observations

Time (PDT) Temp. Dew Point Humidity Pressure Visibility Wind Dir Wind Speed Gust Speed Precip Events Conditions
12:53 AM 57.0 °F 53.1 °F 87% 29.95 in 10.0 mi South 5.8 mph - N/A   Mostly Cloudy
1:53 AM 57.0 °F 53.1 °F 87% 29.95 in 10.0 mi SSE 4.6 mph - N/A   Overcast
2:53 AM 55.0 °F 52.0 °F 89% 29.94 in 10.0 mi SSE 3.5 mph - N/A   Partly Cloudy
3:53 AM 57.0 °F 54.0 °F 89% 29.93 in 5.0 mi West 10.4 mph - 0.00 in Rain Light Rain
3:56 AM 55.4 °F 53.6 °F 94% 29.93 in 2.0 mi West 5.8 mph - 0.01 in Rain Heavy Rain
4:05 AM 55.4 °F 55.4 °F 100% 29.93 in 2.5 mi Variable 4.6 mph - 0.10 in Rain Heavy Rain
4:09 AM 55.4 °F 55.4 °F 100% 29.93 in 1.8 mi West 4.6 mph - 0.14 in Rain Heavy Rain
4:19 AM 55.4 °F 55.4 °F 100% 29.93 in 2.5 mi Calm Calm - 0.21 in Rain Rain
4:27 AM 55.4 °F 55.4 °F 100% 29.93 in 5.0 mi NW 3.5 mph - 0.23 in Rain Rain
4:53 AM 55.0 °F 55.0 °F 100% 29.93 in 10.0 mi Calm Calm - 0.23 in   Overcast
5:12 AM 55.4 °F 55.4 °F 100% 29.93 in 10.0 mi Calm Calm - N/A   Overcast
5:21 AM 55.4 °F 53.6 °F 94% 29.93 in 10.0 mi Calm Calm - N/A   Overcast
5:28 AM 55.4 °F 53.6 °F 94% 29.93 in 10.0 mi Calm Calm - 0.00 in Rain Light Rain
5:37 AM 55.4 °F 53.6 °F 94% 29.93 in 7.0 mi Calm Calm - 0.00 in Rain Light Rain
5:53 AM 55.0 °F 55.0 °F 100% 29.94 in 5.0 mi Calm Calm - 0.01 in Rain Light Rain
6:17 AM 53.6 °F 53.6 °F 100% 29.95 in 3.0 mi NW 3.5 mph - 0.03 in Rain Light Rain
6:24 AM 53.6 °F 53.6 °F 100% 29.95 in 6.0 mi Calm Calm - 0.03 in Rain Light Rain
6:53 AM 55.0 °F 54.0 °F 96% 29.95 in 10.0 mi Calm Calm - 0.03 in   Overcast
7:13 AM 53.6 °F 53.6 °F 100% 29.96 in 10.0 mi Calm Calm - N/A   Overcast
7:26 AM 53.6 °F 53.6 °F 100% 29.96 in 10.0 mi Calm Calm - N/A   Overcast
7:53 AM 55.0 °F 53.1 °F 93% 29.96 in 10.0 mi ENE 4.6 mph - N/A   Overcast
8:53 AM 57.0 °F 53.1 °F 87% 29.99 in 10.0 mi Calm Calm - N/A   Overcast
9:53 AM 60.1 °F 52.0 °F 75% 29.99 in 10.0 mi Calm Calm - N/A   Clear
10:21 AM 60.8 °F 51.8 °F 72% 29.99 in 10.0 mi Calm Calm - N/A   Mostly Cloudy
10:49 AM 59.0 °F 50.0 °F 72% 30.00 in 10.0 mi Calm Calm - N/A   Scattered Clouds
10:53 AM 61.0 °F 51.1 °F 70% 29.99 in 10.0 mi Calm Calm - N/A   Scattered Clouds
11:38 AM 64.4 °F 50.0 °F 59% 30.00 in 10.0 mi Calm Calm - N/A   Mostly Cloudy
11:53 AM 61.0 °F 48.0 °F 62% 29.99 in 10.0 mi West 5.8 mph - N/A   Scattered Clouds
12:53 PM 63.0 °F 46.0 °F 54% 29.98 in 10.0 mi West 9.2 mph - N/A   Clear
1:53 PM 64.0 °F 46.0 °F 52% 29.96 in 10.0 mi West 9.2 mph - N/A   Clear
2:53 PM 64.0 °F 48.0 °F 56% 29.96 in 10.0 mi WNW 8.1 mph - N/A   Clear
3:53 PM 64.0 °F 48.0 °F 56% 29.96 in 10.0 mi WNW 6.9 mph - N/A   Clear
4:53 PM 62.1 °F 48.0 °F 60% 29.96 in 10.0 mi West 9.2 mph - N/A   Clear
5:53 PM 59.0 °F 48.9 °F 69% 29.96 in 10.0 mi West 5.8 mph - N/A   Clear
6:53 PM 57.0 °F 50.0 °F 77% 29.98 in 10.0 mi Calm Calm - N/A   Clear
7:53 PM 57.0 °F 50.0 °F 77% 29.99 in 10.0 mi Calm Calm - N/A   Clear
8:53 PM 54.0 °F 48.9 °F 83% 30.00 in 10.0 mi Calm Calm - N/A   Clear
9:53 PM 54.0 °F 50.0 °F 86% 30.01 in 10.0 mi Calm Calm - N/A   Clear
10:53 PM 53.1 °F 48.9 °F 86% 30.02 in 10.0 mi ENE 4.6 mph - N/A   Partly Cloudy
11:53 PM 53.1 °F 48.9 °F 86% 30.01 in 10.0 mi ENE 4.6 mph - N/A   Partly Cloudy